User: anonymous   Login
Location: Bismarck
(46.7731°N, 100.8200°W)
Time: 19:24:11
(UTC-05:00)
Language:

Cosmos 2219 Rocket - Orbit

View from above orbital plane
View from above orbital plane
View from above satellite
View from above satellite

Ground track
Ground track

The orbit data is extracted from the following two-line orbital elements,

1 22220U 92076B   16243.22084280 -.00000095  00000-0 -23703-4 0  9999
2 22220  71.0013 311.7128 0013346 346.1523  74.5707 14.16403606229572
Epoch (UTC): 30 August 2016 05:18:00
Eccentricity: 0.0013346
inclination: 71.0013°
perigee height: 828 km
apogee height: 847 km
right ascension of ascending node: 311.7128°
argument of perigee: 346.1523°
revolutions per day: 14.16403606
mean anomaly at epoch: 74.5707°
orbit number at epoch: 22957

The dashed part of the orbit path shows where the satellite is in the earth's shadow,  

DLR